Regional Weather Roundup
Issued by NWS

Home | Current Version | Previous Version | Text Only | Print | Product List | Glossary On
Versions: 1 2 3 4 5 6 7 8 9 10 11 12 13 14 15 16 17 18 19 20 21 22 23 24 25 26 27 28 29 30 31 32 33 34 35 36 37 38 39 40 41 42 43 44 45 46 47 48 49 50
043
ASUS43 KMKX 130411
RWRWI

WISCONSIN REGIONAL WEATHER ROUNDUP
NATIONAL WEATHER SERVICE MILWAUKEE/SULLIVAN WI
1000 PM CST FRI FEB 12 2016

NOTE: "FAIR" INDICATES FEW OR NO CLOUDS BELOW 12,000 FEET WITH NO
SIGNIFICANT WEATHER AND/OR OBSTRUCTIONS TO VISIBILITY.

WIZ001-002-006>008-014>016-023>028-130500-
NORTHWEST WISCONSIN

CITY           SKY/WX    TMP DP  RH WIND       PRES   REMARKS
SUPERIOR ARPT  PTCLDY    -3 -16  52 NW9       30.58R WCI -19
ASHLAND        CLEAR     -2 -11  65 NW8       30.51R WCI -17
HAYWARD        CLEAR     -4 -18  51 VRB3      30.48R
SIREN          CLEAR     -3 -17  50 NW9       30.56R WCI -18
CUMBERLAND     CLEAR      0 -18  42 NW14      30.50R WCI -19
RICE LAKE      CLEAR     -1 -16  49 NW6       30.52R WCI -13
CHETEK         CLEAR     -3 -16  55 NW5       30.51R WCI -14
LADYSMITH      CLEAR     -4 -18  51 NW6       30.47R WCI -16
EAU CLAIRE     CLEAR      0 -16  46 NW8       30.52R WCI -14
MENOMONIE      CLOUDY     1 -14  49 W9        30.54R WCI -14
NEW RICHMOND   CLOUDY     0 -14  51 N10       30.55R WCI -17
OSCEOLA        CLEAR      1 -14  49 NW7       30.59R WCI -12
$$

WIZ003>005-009-010-017-018-130500-
NORTH CENTRAL WISCONSIN

CITY           SKY/WX    TMP DP  RH WIND       PRES   REMARKS
MANITOWISH WTR CLOUDY    -4 -10  77 NW13      30.33R WCI -23
ARBOR VITAE    CLEAR     -3 -11  70 NW6       30.33R WCI -15
WOODRUFF       CLEAR     -3 -11  70 NW6       30.33R WCI -15
RHINELANDER    CLEAR     -5 -14  65 NW9       30.32S WCI -22
EAGLE RIVER    FLURRIES  -4 -10  74 W9        30.30R WCI -20
LAND O LAKES   CLEAR     -1  -6  79 NW7       30.30R WCI -14
PHILLIPS       CLEAR     -7 -17  61 W3        30.39R
TOMAHAWK       CLEAR     -6 -15  63 NW8       30.37S WCI -21
MEDFORD        CLEAR     -4 -17  53 NW7       30.40R WCI -18
MERRILL        CLEAR     -2 -15  55 NW14      30.39R WCI -21
$$

WIZ029-030-035-036-043>047-130500-
CENTRAL WISCONSIN

CITY           SKY/WX    TMP DP  RH WIND       PRES   REMARKS
WAUSAU         CLEAR      0 -14  51 NW10      30.39R WCI -16
MOSINEE        CLEAR      0 -13  55 W10G18    30.41R WCI -17
MARSHFIELD     CLEAR     -2 -18  46 NW10      30.42R WCI -19
STEVENS POINT  CLEAR     -2 -15  53 NW6       30.43S WCI -14
WAUPACA        PTCLDY     3 -13  47 W6        30.45R WCI  -8
WAUTOMA        PTCLDY     0 -15  49 NW6       30.48R WCI -11
WISC RAPIDS    CLEAR     -1 -16  48 NW7       30.47R WCI -14
CAMP DOUGLAS   CLEAR     -2 -15  53 NW7       30.49R WCI -15
$$

WIZ011>013-019>022-031-037>040-048>050-130500-
NORTHEAST WISCONSIN

CITY           SKY/WX    TMP DP  RH WIND       PRES   REMARKS
ANTIGO         CLEAR     -5 -14  65 NW10G17   30.33R WCI -22
SHAWANO        CLEAR      2 -12  52 W3        30.43R
OCONTO         CLEAR      0 -11  58 NW6       30.41R WCI -11
STURGEON BAY     N/A      0 N/A N/A NW12      30.39R WCI -18
GREEN BAY      CLEAR      0 -13  54 W9        30.42R WCI -15
MANITOWOC      CLEAR      1 -11  57 NW10      30.43R WCI -15
APPLETON       CLEAR      0 -15  50 W13       30.40R WCI -18
CLINTONVILLE   CLEAR      1 -13  51 NW10G17   30.43R WCI -14
OSHKOSH        CLEAR      2 -12  52 NW13G20   30.44R WCI -15
$$

WIZ032>034-041-042-053>061-130500-
SOUTHWEST WISCONSIN

CITY           SKY/WX    TMP DP  RH WIND       PRES   REMARKS
LA CROSSE      CLEAR      2 -11  54 NW8       30.55R WCI -12
SPARTA         CLEAR      2 -13  48 NW8       30.52R WCI -11
VIROQUA        CLEAR     -1 -14  53 NW7       30.47R WCI -14
BOSCOBEL       CLEAR      6 -12  43 N6        30.54R WCI  -4
PRAIRIE DU CHI CLOUDY     6 -11  45 NW7       30.55R WCI  -6
PLATTEVILLE    CLEAR      6  -9  50 NW15      30.48R WCI -11
$$

WIZ056-057-062-063-064-067-068-130500-
SOUTH CENTRAL WISCONSIN

CITY           SKY/WX    TMP DP  RH WIND       PRES   REMARKS
REEDSBURG      CLEAR      3 -13  46 NW8       30.49R WCI -10
BARABOO/DELLS  CLEAR      2 -13  48 NW5       30.47R WCI  -8
LONE ROCK      CLEAR      6 -12  43 NW10      30.52R WCI  -9
MINERAL POINT  CLEAR      7 -13  40 N12G20    30.46R WCI  -9
MADISON        CLEAR      4 -13  45 N13G23    30.47R WCI -13
MIDDLETON      CLEAR      6  -9  50 N12       30.47R WCI -10
WATERTOWN      CLEAR      4  -9  53 NW13G20   30.45R WCI -13
MONROE         CLEAR      7  -9  47 N20G25    30.45R WCI -13
JANESVILLE     CLEAR     10  -9  40 N15G23    30.46R WCI  -6
$$

WIZ051-052-058>065-066-070>072-130500-
SOUTHEAST WISCONSIN

CITY           SKY/WX    TMP DP  RH WIND       PRES   REMARKS
MILWAUKEE      CLEAR      5 -11  47 N21G28    30.43R WCI -16
WAUKESHA       CLEAR      3 -13  47 NW17G26   30.44R WCI -17
MILWAUKEE/TIMM CLEAR      5 -13  43 NW22G28   30.45R WCI -16
RACINE         CLEAR      7 -10  46 NW18G29   30.44R WCI -12
BURLINGTON     CLEAR      5 -10  50 NW15      30.44R WCI -13
KENOSHA        CLEAR      7  -8  50 N15G24    30.42R WCI -10
FOND DU LAC    CLEAR      2 -12  52 NW10      30.45R WCI -14
SHEBOYGAN      CLEAR      2 -12  52 NW12      30.42R WCI -15
WEST BEND      CLEAR      3 -13  47 NW13G21   30.43R WCI -14
JUNEAU         CLEAR      2 -11  56 NW9       30.46R WCI -13
$$

LSZ147-162-130500-
LAKE SUPERIOR

STATION/POSITION TIME  TEMP    WIND        PRES    WAVE
                       AIR SEA DIR/SP/G            HT/PER
                 (UTC) (F)     (DEG/KT/KT) (MB)    (FT/S)
DEVILS ISLAND    0400    1     330/ 17/ 20 1035.5R
SAXON HARBOR     0300    4                 1031.5R
$$

LMZ867-665-643>646-130500-
LAKE MICHIGAN

STATION/POSITION TIME  TEMP    WIND        PRES    WAVE
                       AIR SEA DIR/SP/G            HT/PER
                 (UTC) (F)     (DEG/KT/KT) (MB)    (FT/S)
CHAMBERS ISLAND  0300    2     290/  8/ 15 1028.1R
SISTER BAY       0320    2     330/ 23/ 28   N/A
ALGOMA LAKESHORE 0311          310/  4/  8   N/A
KEWAUNEE LAKESHO 0300    2                 1028.2R
SHEBOYGAN LAKESH 0400    4     310/ 14/ 18 1032.3R
PORT WASHINGTON  0300    6     320/ 12/ 20 1030.8
MILWAUKEE LAKESH 0310    8     340/ 20/ 25   N/A
KENOSHA   LAKESH 0400    8     330/ 16/ 25 1030.1R
$$

TC  - TEMPERATURE IN CELSIUS
VSB - VISIBILITY IN STATUTE MILES
WCI - WIND CHILL INDEX
HX  - HEAT INDEX





USA.gov is the U.S. government's official web portal to all federal, state and local government web resources and services.